Simultaneous Nadir Overpasses (SNOs) Predictions

Prediction of SNOs between LANDSAT-8 and METOP-A Satellite Orbit:

Table of predicted SNOs for the next 14.0 days since TLE Epoch: 3/7/2020
Index Date (LANDSAT-8) Time (LANDSAT-8) Lat,Lon (LANDSAT-8) SZA (LANDSAT-8 ) Date (METOP-A) Time (METOP-A) Lat,Lon (METOP-A) SZA (METOP-A ) Distance(km) Time Diff (sec)
1 03/07/2020 04:00:56 81.48, 165.86 88.87 03/07/2020 04:01:09 81.49, 165.67 88.86 3.23 13
2 03/09/2020 22:45:43 -81.48, 64.55 92.21 03/09/2020 22:44:50 -81.49, 64.69 92.22 2.40 53
3 03/09/2020 23:35:09 81.49,-127.68 87.80 03/09/2020 23:35:30 81.48,-127.56 87.82 2.08 21
4 03/12/2020 18:19:57 -81.48, 131.02 93.29 03/12/2020 18:19:13 -81.49, 131.07 93.30 1.13 44
5 03/12/2020 19:09:23 81.49, -61.25 86.71 03/12/2020 19:09:53 81.48, -61.20 86.73 0.95 30
6 03/15/2020 13:54:11 -81.48,-162.55 94.38 03/15/2020 13:53:36 -81.49,-162.56 94.39 0.60 35
7 03/15/2020 14:43:37 81.48, 5.15 85.62 03/15/2020 14:44:16 81.48, 5.15 85.64 0.14 39
8 03/18/2020 09:28:24 -81.48, -96.14 95.47 03/18/2020 09:27:58 -81.49, -96.20 95.48 1.25 26




NCC Satellite Simultaneous Nadir Overpasses (SNOs) Prediction Service
